{"data":{"norad_id":59329,"epoch":"2026-09-21T09:53:36.302208Z","epoch_age_seconds":83508,"freshness":"FRESH","line1":"1 59329U 24057K   26264.41222572 -.00003812  00000+0 -12902-3 0  9993","line2":"2 59329  42.9992 161.6206 0001396 274.5682  85.5011 15.27590951139771","mean_motion":15.27590951,"eccentricity":0.0001396,"inclination_deg":42.9992,"raan_deg":161.6206,"arg_perigee_deg":274.5682,"mean_anomaly_deg":85.5011,"bstar":-0.00012902,"rev_number":13977,"period_min":94.266072933814,"perigee_km":482.05848800057,"apogee_km":483.97412200332,"semimajor_km":6861.1533050019,"source":"CELESTRAK","updated_at":"2026-09-22T09:00:48.899541Z"}}